[[{"header":{"parameterUnit":"m.s-1","parameterCategory":1,"la1":30.2991,"la2":30.254,"lo1":-89.0895,"lo2":-89.0444,"dy":0.0017,"dx":0.0017,"nx":28,"ny":28,"refTime":"2025-02-07T03:00:00:Z","depth":0,"parameterNumber":2,"parameterNumberName":"U-component_of_WINDS"},"data":[0,0,0,0,0,0,0,0,0,0,0,0,0,0,0,0,0,0,0,0,0,0,0,0,0,0,0,0,0,0,0,0,0,0,0,0,0,0,0,0,0,0,0,0,0,0,0,0,0,0,0,0,0,0,0,0,0,0,-0.1421,-0.1421,0,-0.1383,-0.1383,-0.1382,-0.1354,-0.1354,-0.1354,-0.1354,-0.1314,-0.1313,-0.1312,0,0,0,0,0,0,0,0,0,0,0,0,0,-0.1468,-0.1467,-0.1421,-0.1421,-0.142,-0.1383,-0.1383,-0.1382,-0.1354,-0.1354,-0.1354,-0.1353,-0.1314,-0.1313,-0.1312,0,0,0,0,0,0,0,0,0,0,0,0,0,-0.144,-0.1467,-0.1421,-0.1402,-0.14,-0.1383,-0.1383,-0.1382,-0.1354,-0.1354,-0.1354,-0.1353,-0.1314,-0.1313,-0.1312,-0.1312,0,0,-0.1308,-0.1308,0,0,0,0,0,0,0,0,-0.1442,-0.1439,-0.1405,-0.1403,-0.1401,-0.1373,-0.1384,-0.1358,-0.1354,-0.1372,-0.1354,-0.1353,-0.1334,-0.1331,-0.1325,-0.131,-0.1308,-0.1308,-0.1307,-0.1307,-0.1306,0,0,0,0,0,0,0,-0.1444,-0.144,-0.1406,-0.1405,-0.1402,-0.1394,-0.139,-0.1379,-0.1355,-0.137,-0.1368,-0.1364,-0.1332,-0.1326,-0.1323,-0.1307,-0.1308,-0.1307,-0.1306,-0.1306,-0.1289,-0.1289,0,0,0,0,0,0,-0.1449,-0.1442,-0.1407,-0.1405,-0.1421,-0.1394,-0.1389,-0.1382,-0.1355,-0.1351,-0.1364,-0.1363,-0.1328,-0.1325,-0.1322,-0.1319,-0.1307,-0.1306,-0.1305,-0.1288,-0.1289,-0.1289,0,0,0,0,0,0,-0.145,-0.1446,-0.1409,-0.1423,-0.1417,-0.1393,-0.1386,-0.1382,-0.1375,-0.1351,-0.1346,-0.1362,-0.1328,-0.1324,-0.1314,-0.1317,-0.1305,-0.1304,-0.1288,-0.1289,-0.1289,-0.1313,0,0,0,0,0,0,-0.1451,-0.1447,-0.1447,-0.1423,-0.1417,-0.1402,-0.1386,-0.1381,-0.1373,-0.1371,-0.1347,-0.1343,-0.1327,-0.1316,-0.1313,-0.1315,-0.1303,-0.1288,-0.1288,-0.1289,-0.1312,-0.1314,-0.1316,0,0,0,0,0,-0.1453,-0.1455,-0.1447,-0.1443,-0.1417,-0.1402,-0.1399,-0.1381,-0.1374,-0.1373,-0.1357,-0.1344,-0.1317,-0.1315,-0.1311,-0.1313,-0.1287,-0.1288,-0.1289,-0.1311,-0.1314,-0.1316,0,0,0,0,0,0,-0.148,-0.1452,-0.1442,-0.1437,-0.1422,-0.1398,-0.1397,-0.1384,-0.1371,-0.137,-0.1347,-0.1342,-0.1335,-0.1323,-0.1321,-0.1311,-0.1301,-0.13,-0.1319,-0.1321,-0.1323,-0.1326,-0.1302,0,0,0,0,0,-0.1485,-0.1477,-0.1452,-0.145,-0.1443,-0.1421,-0.1414,-0.1401,-0.1385,-0.1379,-0.1362,-0.1347,-0.1335,-0.1327,-0.1315,-0.131,-0.1304,-0.1309,-0.1311,-0.1313,-0.1313,-0.1308,-0.131,-0.1291,-0.1291,-0.1291,0,0,-0.1496,-0.1479,-0.1475,-0.1454,-0.1442,-0.1433,-0.1416,-0.1407,-0.14,-0.1377,-0.1367,-0.1354,-0.1336,-0.1328,-0.1324,-0.1318,-0.1317,-0.1314,-0.1316,-0.1315,-0.1309,-0.1311,-0.1313,-0.1292,-0.1292,-0.1292,0,0,-0.1511,-0.1498,-0.1494,-0.1481,-0.1462,-0.1447,-0.1446,-0.1423,-0.1414,-0.1403,-0.1386,-0.1376,-0.1356,-0.1343,-0.1334,-0.1343,-0.1329,-0.1339,-0.135,-0.1346,-0.1347,-0.1349,-0.1351,-0.1352,-0.1339,-0.1339,-0.1339,0,-0.1527,-0.1512,-0.1493,-0.1485,-0.1476,-0.1455,-0.145,-0.1438,-0.1416,-0.141,-0.1404,-0.1377,-0.1363,-0.1352,-0.1354,-0.1347,-0.1344,-0.1342,-0.1349,-0.135,-0.1351,-0.1352,-0.1353,-0.1341,-0.134,-0.134,-0.134,0,-0.1532,-0.1523,-0.1521,-0.15,-0.1491,-0.1485,-0.1463,-0.1456,-0.1444,-0.1429,-0.1418,-0.14,-0.1383,-0.138,-0.1368,-0.1366,-0.1363,-0.1353,-0.1342,-0.1354,-0.1355,-0.1356,-0.1342,-0.1342,-0.1342,-0.1341,0,0,-0.1563,-0.1531,-0.1531,-0.152,-0.1497,-0.1489,-0.1481,-0.1464,-0.1458,-0.1443,-0.1435,-0.1418,-0.1409,-0.1398,-0.1384,-0.138,-0.1387,-0.1371,-0.137,-0.1374,-0.1382,-0.139,-0.1391,-0.1378,-0.1378,-0.1378,-0.1384,0,-0.1574,-0.1559,-0.1541,-0.1532,-0.1522,-0.1501,-0.1494,-0.1479,-0.1465,-0.1454,-0.1438,-0.1426,-0.1415,-0.1409,-0.1404,-0.1387,-0.1388,-0.1387,-0.137,-0.1369,-0.1375,-0.1391,-0.1399,-0.1405,-0.1384,-0.1384,-0.1384,0,-0.1585,-0.157,-0.156,-0.1537,-0.1532,-0.1526,-0.1509,-0.1499,-0.148,-0.147,-0.1458,-0.1443,-0.1433,-0.1423,-0.1408,-0.1407,-0.1399,-0.139,-0.139,-0.1387,-0.1377,-0.1388,-0.1407,-0.1407,-0.1385,-0.1385,-0.1385,0,-0.1607,-0.1586,-0.1576,-0.1568,-0.1541,-0.1537,-0.1525,-0.1506,-0.1497,-0.1482,-0.1475,-0.1459,-0.145,-0.1437,-0.1418,-0.1413,-0.1404,-0.1394,-0.1395,-0.1395,-0.1394,-0.1394,-0.141,-0.139,-0.139,-0.139,-0.139,0,-0.1621,-0.1615,-0.1586,-0.158,-0.1573,-0.1552,-0.1545,-0.1531,-0.1515,-0.1505,-0.1486,-0.1478,-0.1453,-0.1441,-0.1426,-0.1415,-0.1411,-0.1402,-0.1398,-0.1403,-0.1405,-0.1398,-0.1396,-0.139,-0.139,-0.139,-0.139,0,-0.1645,-0.1625,-0.1614,-0.1588,-0.1582,-0.1577,-0.1555,-0.1548,-0.1533,-0.1522,-0.1518,-0.1494,-0.1479,-0.1458,-0.1437,-0.1426,-0.1417,-0.1411,-0.1424,-0.1421,-0.1423,-0.1423,-0.1435,-0.1435,-0.1415,-0.1416,-0.1416,0,-0.1654,-0.165,-0.1623,-0.1616,-0.1605,-0.1593,-0.1583,-0.1562,-0.1552,-0.153,-0.1526,-0.1509,-0.1495,-0.1472,-0.1452,-0.1436,-0.1428,-0.1434,-0.1426,-0.1431,-0.1427,-0.1428,-0.1427,-0.1436,-0.1436,-0.1436,-0.1437,0,-0.1673,-0.1664,-0.1651,-0.1634,-0.1623,-0.1609,-0.1593,-0.1588,-0.1563,-0.1553,-0.1538,-0.1527,-0.1505,-0.1488,-0.1469,-0.1456,-0.1442,-0.1439,-0.1438,-0.1444,-0.1451,-0.1446,-0.1428,-0.1439,-0.1439,-0.1439,-0.1438,-0.1438,-0.169,-0.1684,-0.1665,-0.165,-0.1636,-0.1622,-0.1615,-0.1598,-0.1585,-0.1565,-0.1553,-0.1538,-0.1518,-0.149,-0.1478,-0.1465,-0.146,-0.1459,-0.1458,-0.1458,-0.146,-0.1453,-0.1462,-0.1462,-0.1462,-0.1461,-0.1461,0,-0.1707,-0.1693,-0.168,-0.1659,-0.1648,-0.1636,-0.1618,-0.1609,-0.1596,-0.1579,-0.1565,-0.1546,-0.153,-0.1509,-0.1491,-0.1485,-0.1477,-0.148,-0.148,-0.1477,-0.1466,-0.1468,-0.1486,-0.1486,-0.1486,-0.1486,-0.1486,-0.1486,-0.1715,-0.1704,-0.1692,-0.1674,-0.1659,-0.1645,-0.1635,-0.1622,-0.1608,-0.1588,-0.1575,-0.1561,-0.1541,-0.1522,-0.1506,-0.15,-0.1494,-0.1498,-0.149,-0.1481,-0.1478,-0.1476,-0.1478,-0.1497,-0.1498,-0.1502,-0.1502,-0.1502]},{"header":{"parameterUnit":"m.s-1","parameterCategory":1,"la1":30.2991,"la2":30.254,"lo1":-89.0895,"lo2":-89.0444,"dy":0.0017,"dx":0.0017,"nx":28,"ny":28,"refTime":"2025-02-07T03:00:00:Z","depth":0,"parameterNumber":3,"parameterNumberName":"V-component_of_WINDS"},"data":[0,0,0,0,0,0,0,0,0,0,0,0,0,0,0,0,0,0,0,0,0,0,0,0,0,0,0,0,0,0,0,0,0,0,0,0,0,0,0,0,0,0,0,0,0,0,0,0,0,0,0,0,0,0,0,0,0,0,2.9415,2.9415,0,2.9393,2.9392,2.9392,2.9377,2.9377,2.9377,2.9377,2.9353,2.9353,2.9352,0,0,0,0,0,0,0,0,0,0,0,0,0,2.9447,2.9446,2.9415,2.9415,2.9414,2.9393,2.9392,2.9392,2.9377,2.9377,2.9377,2.9377,2.9353,2.9353,2.9352,0,0,0,0,0,0,0,0,0,0,0,0,0,2.943,2.9446,2.9415,2.9404,2.9403,2.9393,2.9392,2.9392,2.9377,2.9377,2.9377,2.9377,2.9354,2.9353,2.9352,2.935,0,0,2.935,2.9349,0,0,0,0,0,0,0,0,2.9431,2.9428,2.9406,2.9405,2.9404,2.9387,2.9395,2.9378,2.9377,2.9387,2.9377,2.9376,2.9365,2.9363,2.9359,2.9349,2.9348,2.935,2.9349,2.9349,2.9348,0,0,0,0,0,0,0,2.9432,2.9429,2.9406,2.9406,2.9404,2.9401,2.9399,2.9392,2.9377,2.9386,2.9385,2.9382,2.9364,2.936,2.9358,2.9348,2.935,2.9349,2.9348,2.9348,2.934,2.934,0,0,0,0,0,0,2.9435,2.943,2.9407,2.9405,2.9417,2.9401,2.9398,2.9393,2.9377,2.9374,2.9383,2.9382,2.9361,2.9359,2.9358,2.9357,2.9349,2.9348,2.9348,2.9339,2.934,2.934,0,0,0,0,0,0,2.9435,2.9433,2.9408,2.9418,2.9414,2.9401,2.9395,2.9392,2.9388,2.9374,2.9372,2.9381,2.9361,2.9359,2.9353,2.9356,2.9348,2.9347,2.9339,2.934,2.934,2.9354,0,0,0,0,0,0,2.9436,2.9433,2.9431,2.9418,2.9414,2.9403,2.9395,2.9392,2.9387,2.9386,2.9372,2.937,2.9361,2.9354,2.9352,2.9355,2.9346,2.9339,2.9339,2.934,2.9354,2.9355,2.9357,0,0,0,0,0,2.9437,2.9435,2.9431,2.9428,2.9411,2.9403,2.9401,2.9391,2.9387,2.9386,2.9378,2.937,2.9356,2.9354,2.9352,2.9354,2.9339,2.9339,2.934,2.9353,2.9355,2.9357,0,0,0,0,0,0,2.9448,2.9433,2.9428,2.9422,2.9414,2.9401,2.9399,2.9393,2.9385,2.9384,2.9372,2.9369,2.9366,2.9359,2.9357,2.9353,2.9347,2.9347,2.9358,2.9359,2.9361,2.9363,2.9346,0,0,0,0,0,2.945,2.9444,2.9431,2.9427,2.9423,2.9412,2.9408,2.9401,2.9392,2.9389,2.938,2.9372,2.9366,2.9362,2.9356,2.9353,2.9351,2.9353,2.9355,2.9356,2.9357,2.9358,2.936,2.9342,2.9342,2.9342,0,0,2.9453,2.9444,2.9441,2.9429,2.9422,2.9418,2.9409,2.9403,2.9401,2.9388,2.9383,2.9377,2.9367,2.9364,2.9362,2.9358,2.9361,2.9357,2.9358,2.9358,2.9359,2.936,2.9362,2.9342,2.9342,2.9342,0,0,2.9457,2.9449,2.9445,2.944,2.943,2.9423,2.9423,2.9411,2.9407,2.9402,2.9393,2.939,2.9379,2.9374,2.937,2.9376,2.937,2.9374,2.9382,2.9384,2.9385,2.9386,2.9391,2.9392,2.9375,2.9375,2.9375,0,2.9461,2.9454,2.9444,2.9441,2.9437,2.9427,2.9425,2.942,2.9408,2.9406,2.9403,2.9392,2.9384,2.9381,2.9383,2.9379,2.938,2.9376,2.9386,2.9387,2.9388,2.9392,2.9393,2.9376,2.9375,2.9375,2.9375,0,2.9462,2.9457,2.9456,2.9447,2.9443,2.944,2.9431,2.9429,2.9423,2.9417,2.9414,2.9406,2.9399,2.9398,2.9391,2.9395,2.9394,2.9388,2.9381,2.939,2.9394,2.9396,2.9377,2.9376,2.9376,2.9376,0,0,2.9468,2.9458,2.9457,2.9455,2.9446,2.9442,2.944,2.9435,2.9434,2.9427,2.9427,2.942,2.9416,2.9411,2.9405,2.9406,2.9415,2.9401,2.94,2.9405,2.9422,2.9427,2.9428,2.9411,2.9411,2.9412,2.9423,0,2.9472,2.9468,2.9461,2.9459,2.9457,2.9449,2.9448,2.9443,2.9438,2.9436,2.9431,2.9427,2.9421,2.9419,2.942,2.9414,2.9419,2.9413,2.9412,2.9412,2.9415,2.943,2.9434,2.9445,2.9424,2.9424,2.9425,0,2.9474,2.947,2.9469,2.9464,2.9462,2.9461,2.9458,2.9455,2.945,2.9447,2.9444,2.9438,2.9438,2.9432,2.9432,2.9428,2.9428,2.9426,2.9426,2.9426,2.9419,2.9432,2.9448,2.9451,2.9426,2.9426,2.9426,0,2.9482,2.9476,2.9476,2.9473,2.9467,2.9467,2.9464,2.9459,2.9458,2.9455,2.9454,2.9451,2.9449,2.9448,2.9442,2.9438,2.9444,2.9436,2.9442,2.9443,2.9444,2.9444,2.9462,2.9442,2.9442,2.9442,2.9442,0,2.9486,2.9486,2.948,2.9479,2.948,2.9473,2.9475,2.9471,2.9468,2.9468,2.9461,2.9461,2.9453,2.9453,2.9449,2.9451,2.945,2.9448,2.9447,2.9449,2.945,2.9449,2.9449,2.9442,2.9442,2.9442,2.9442,0,2.9494,2.949,2.9489,2.9484,2.9483,2.9484,2.948,2.9481,2.9477,2.9477,2.9477,2.9471,2.9471,2.9466,2.9464,2.9461,2.9466,2.9463,2.9468,2.9467,2.9474,2.9474,2.9493,2.9496,2.9473,2.9473,2.9473,0,2.9498,2.9498,2.9494,2.9494,2.9493,2.9492,2.9492,2.9486,2.9486,2.9483,2.9485,2.9484,2.9484,2.9484,2.948,2.948,2.9478,2.9485,2.9477,2.9481,2.948,2.948,2.9482,2.9486,2.9486,2.9486,2.9487,0,2.9505,2.9504,2.9503,2.9503,2.9503,2.9502,2.9501,2.9501,2.9496,2.9497,2.9497,2.9497,2.9497,2.9498,2.9497,2.9495,2.9491,2.9489,2.9491,2.9493,2.9497,2.9497,2.9473,2.9489,2.9488,2.9488,2.9488,2.9488,2.9512,2.9513,2.9512,2.9512,2.9512,2.9512,2.9513,2.9511,2.9512,2.9512,2.9509,2.9511,2.951,2.951,2.9509,2.9511,2.9508,2.9509,2.951,2.9511,2.9513,2.9496,2.9511,2.951,2.951,2.951,2.951,0,2.952,2.952,2.9521,2.9521,2.9522,2.9519,2.9519,2.9521,2.9523,2.9522,2.9523,2.9526,2.9528,2.9525,2.9527,2.953,2.9528,2.953,2.953,2.9531,2.9515,2.9514,2.9532,2.9532,2.9532,2.9532,2.9532,2.9532,2.9524,2.9528,2.9527,2.9531,2.9531,2.9534,2.9534,2.9535,2.9536,2.9539,2.9541,2.954,2.954,2.9542,2.9545,2.9544,2.9546,2.9549,2.9548,2.9533,2.9531,2.9529,2.9529,2.9549,2.9549,2.9564,2.9564,2.9564]}]]